TimeEST,TemperatureF,Dew PointF,Humidity,Sea Level PressureIn,VisibilityMPH,Wind Direction,Wind SpeedMPH,Gust SpeedMPH,PrecipitationIn,Events,Conditions,WindDirDegrees,DateUTC
12:15 AM,57.2,57.2,100,30.29,0.2,Calm,Calm,-,N/A,,Overcast,0,2012-12-03 05:15:00
12:35 AM,57.2,55.4,94,30.28,0.2,Calm,Calm,-,N/A,,Overcast,0,2012-12-03 05:35:00
12:55 AM,55.4,55.4,100,30.28,0.5,Calm,Calm,-,N/A,,Overcast,0,2012-12-03 05:55:00
1:15 AM,55.4,55.4,100,30.28,0.2,Calm,Calm,-,N/A,,Overcast,0,2012-12-03 06:15:00
1:35 AM,55.4,55.4,100,30.28,0.2,Calm,Calm,-,N/A,,Overcast,0,2012-12-03 06:35:00
1:55 AM,55.4,55.4,100,30.29,0.2,Calm,Calm,-,N/A,,Overcast,0,2012-12-03 06:55:00
2:15 AM,57.2,55.4,94,30.29,3.0,Calm,Calm,-,N/A,,Overcast,0,2012-12-03 07:15:00
2:35 AM,57.2,57.2,100,30.29,2.0,Calm,Calm,-,N/A,,Overcast,0,2012-12-03 07:35:00
2:55 AM,57.2,57.2,100,30.29,5.0,Calm,Calm,-,N/A,,Overcast,0,2012-12-03 07:55:00
3:15 AM,59.0,57.2,94,30.29,5.0,Calm,Calm,-,N/A,,Overcast,0,2012-12-03 08:15:00
3:35 AM,57.2,57.2,100,30.29,2.0,Calm,Calm,-,N/A,,Overcast,0,2012-12-03 08:35:00
3:55 AM,59.0,59.0,100,30.29,5.0,Calm,Calm,-,N/A,,Overcast,0,2012-12-03 08:55:00
4:15 AM,59.0,59.0,100,30.29,7.0,Calm,Calm,-,N/A,,Overcast,0,2012-12-03 09:15:00
4:35 AM,60.8,59.0,94,30.29,7.0,Calm,Calm,-,N/A,,Overcast,0,2012-12-03 09:35:00
4:55 AM,60.8,60.8,100,30.29,7.0,Calm,Calm,-,N/A,,Overcast,0,2012-12-03 09:55:00
5:15 AM,60.8,60.8,100,30.29,7.0,Calm,Calm,-,N/A,,Overcast,0,2012-12-03 10:15:00
5:35 AM,60.8,60.8,100,30.30,7.0,Calm,Calm,-,N/A,,Overcast,0,2012-12-03 10:35:00
5:55 AM,60.8,60.8,100,30.30,7.0,Calm,Calm,-,N/A,,Overcast,0,2012-12-03 10:55:00
6:15 AM,60.8,60.8,100,30.30,2.5,Calm,Calm,-,N/A,,Overcast,0,2012-12-03 11:15:00
6:35 AM,60.8,60.8,100,30.31,0.8,Calm,Calm,-,N/A,,Overcast,0,2012-12-03 11:35:00
6:55 AM,60.8,60.8,100,30.32,0.5,Calm,Calm,-,N/A,,Overcast,0,2012-12-03 11:55:00
7:15 AM,60.8,60.8,100,30.32,0.2,Calm,Calm,-,N/A,,Overcast,0,2012-12-03 12:15:00
7:35 AM,60.8,60.8,100,30.32,0.2,Calm,Calm,-,N/A,,Overcast,0,2012-12-03 12:35:00
7:55 AM,62.6,60.8,94,30.33,0.2,Calm,Calm,-,N/A,,Overcast,0,2012-12-03 12:55:00
8:15 AM,62.6,62.6,100,30.33,0.5,Calm,Calm,-,N/A,,Overcast,0,2012-12-03 13:15:00
8:35 AM,62.6,62.6,100,30.34,5.0,Calm,Calm,-,N/A,,Scattered Clouds,0,2012-12-03 13:35:00
8:55 AM,64.4,64.4,100,30.34,10.0,Calm,Calm,-,N/A,,Scattered Clouds,0,2012-12-03 13:55:00
9:15 AM,68.0,66.2,94,30.34,10.0,Calm,Calm,-,N/A,,Mostly Cloudy,0,2012-12-03 14:15:00
9:35 AM,68.0,68.0,100,30.34,10.0,Calm,Calm,-,N/A,,Scattered Clouds,0,2012-12-03 14:35:00
9:55 AM,69.8,69.8,100,30.34,10.0,SE,4.6,-,N/A,,Mostly Cloudy,130,2012-12-03 14:55:00
10:15 AM,71.6,68.0,88,30.35,10.0,SSE,3.5,-,N/A,,Overcast,160,2012-12-03 15:15:00
10:35 AM,71.6,66.2,83,30.34,10.0,SSE,5.8,-,N/A,,Mostly Cloudy,150,2012-12-03 15:35:00
10:55 AM,73.4,64.4,73,30.34,10.0,SSE,6.9,-,N/A,,Mostly Cloudy,160,2012-12-03 15:55:00
11:15 AM,73.4,64.4,73,30.34,10.0,South,3.5,-,N/A,,Mostly Cloudy,170,2012-12-03 16:15:00
11:35 AM,75.2,64.4,69,30.33,10.0,SSE,3.5,-,N/A,,Overcast,160,2012-12-03 16:35:00
11:55 AM,77.0,64.4,65,30.32,10.0,South,5.8,-,N/A,,Mostly Cloudy,180,2012-12-03 16:55:00
12:15 PM,75.2,62.6,65,30.31,10.0,South,8.1,-,N/A,,Scattered Clouds,170,2012-12-03 17:15:00
12:35 PM,73.4,62.6,69,30.31,10.0,South,6.9,-,N/A,,Mostly Cloudy,170,2012-12-03 17:35:00
12:55 PM,77.0,62.6,61,30.30,10.0,South,5.8,-,N/A,,Overcast,170,2012-12-03 17:55:00
1:15 PM,77.0,62.6,61,30.29,10.0,SSE,4.6,-,N/A,,Overcast,160,2012-12-03 18:15:00
1:35 PM,77.0,62.6,61,30.28,10.0,SE,4.6,-,N/A,,Overcast,130,2012-12-03 18:35:00
1:55 PM,77.0,62.6,61,30.28,10.0,SE,8.1,-,N/A,,Overcast,130,2012-12-03 18:55:00
2:15 PM,77.0,62.6,61,30.27,10.0,SSE,6.9,-,N/A,,Mostly Cloudy,160,2012-12-03 19:15:00
2:35 PM,75.2,62.6,65,30.27,10.0,SSE,8.1,-,N/A,,Mostly Cloudy,160,2012-12-03 19:35:00
2:55 PM,73.4,62.6,69,30.27,10.0,SSE,8.1,-,N/A,,Overcast,150,2012-12-03 19:55:00
3:15 PM,73.4,62.6,69,30.27,10.0,SSE,6.9,-,N/A,,Overcast,150,2012-12-03 20:15:00
3:35 PM,73.4,62.6,69,30.27,10.0,SSE,5.8,-,N/A,,Overcast,160,2012-12-03 20:35:00
3:55 PM,73.4,62.6,69,30.26,10.0,South,4.6,-,N/A,,Overcast,190,2012-12-03 20:55:00
4:15 PM,73.4,62.6,69,30.27,10.0,Calm,Calm,-,N/A,,Overcast,0,2012-12-03 21:15:00
4:35 PM,73.4,60.8,65,30.27,10.0,Calm,Calm,-,N/A,,Overcast,0,2012-12-03 21:35:00
4:55 PM,73.4,62.6,69,30.27,10.0,Calm,Calm,-,N/A,,Overcast,0,2012-12-03 21:55:00
5:15 PM,71.6,60.8,69,30.28,10.0,Calm,Calm,-,N/A,,Overcast,0,2012-12-03 22:15:00
5:35 PM,71.6,62.6,73,30.28,10.0,Calm,Calm,-,N/A,,Overcast,0,2012-12-03 22:35:00
5:55 PM,71.6,62.6,73,30.28,10.0,East,3.5,-,N/A,,Overcast,90,2012-12-03 22:55:00
6:15 PM,69.8,62.6,78,30.29,10.0,South,3.5,-,N/A,,Overcast,170,2012-12-03 23:15:00
6:55 PM,68.0,64.4,88,30.29,10.0,SE,3.5,-,N/A,,Overcast,130,2012-12-03 23:55:00
7:15 PM,68.0,64.4,88,30.29,10.0,Calm,Calm,-,N/A,,Overcast,0,2012-12-04 00:15:00
7:35 PM,66.2,62.6,88,30.29,10.0,Calm,Calm,-,N/A,,Overcast,0,2012-12-04 00:35:00
7:55 PM,64.4,62.6,94,30.29,10.0,Calm,Calm,-,N/A,,Mostly Cloudy,0,2012-12-04 00:55:00
8:15 PM,62.6,60.8,94,30.29,10.0,ENE,3.5,-,N/A,,Scattered Clouds,60,2012-12-04 01:15:00
8:35 PM,62.6,60.8,94,30.30,10.0,Calm,Calm,-,N/A,,Scattered Clouds,0,2012-12-04 01:35:00
8:55 PM,62.6,60.8,94,30.29,7.0,Calm,Calm,-,N/A,,Scattered Clouds,0,2012-12-04 01:55:00
9:15 PM,62.6,60.8,94,30.29,1.5,Calm,Calm,-,N/A,,Scattered Clouds,0,2012-12-04 02:15:00
9:35 PM,60.8,59.0,94,30.29,0.8,Calm,Calm,-,N/A,,Unknown,0,2012-12-04 02:35:00
9:55 PM,60.8,59.0,94,30.30,0.5,Calm,Calm,-,N/A,,Unknown,0,2012-12-04 02:55:00
10:15 PM,60.8,59.0,94,30.30,0.5,Calm,Calm,-,N/A,,Mostly Cloudy,0,2012-12-04 03:15:00
10:35 PM,60.8,59.0,94,30.30,1.5,Calm,Calm,-,N/A,,Overcast,0,2012-12-04 03:35:00
10:55 PM,59.0,59.0,100,30.30,0.8,Calm,Calm,-,N/A,,Overcast,0,2012-12-04 03:55:00
11:15 PM,59.0,59.0,100,30.30,0.2,Calm,Calm,-,N/A,,Overcast,0,2012-12-04 04:15:00
11:35 PM,59.0,59.0,100,30.30,0.2,Calm,Calm,-,N/A,,Overcast,0,2012-12-04 04:35:00
11:55 PM,59.0,59.0,100,30.31,0.8,Calm,Calm,-,N/A,,Overcast,0,2012-12-04 04:55:00